Showing default

COSMOS 2095, 20740

Orbit data source: Space-Track

COSMOS 2095, 20740 is a payload satellite owned by UNKS (CIS) in LEO that was launched on Wed, 08 Aug 1990 UTC via a TSIKLON-3 launch vehicle from the Plesetsk Missile And Space Complex (PKMTR). Payload-class satellites include a variety of spacecraft equipped with specific instruments for various scientific and technological missions. These include communications satellites like Starlink; space stations such as the ISS; scientific satellites like the Hubble; Earth observation satellites from companies like Planet Labs, Umbra, and HawkEye 360; GPS; miniature CubeSats for education and research; and military/defense satellites.

Loading next visibility...
Identifier
20740, 1990-070F
Orbit
LEO
Country
Flag of CISCIS
Related business
Manufacturer
NPO PM
Mission
Defense Communications
Bus & Motor
STRELA-3, Unknown motor
Mass
225 kg wet, 225 kg dry
Launch date (UTC)
1990-08-08 (35 years ago)
Launch vehicle
TSIKLON-3
Launch site
Plesetsk Missile And Space Complex (PKMTR)
Object type
Payload
Rocket body
Debris
Shape & HBR
Cyl, 0.8 m
Radar Cross Section
1.257 m², Large (>1 m²)

Expand to show TLE details & history
Last TLE update: 20 hours ago

TLE from 20 hours ago
0 COSMOS 2095
1 20740U 90070F   25257.98307667  .00000035  00000-0  13127-3 0  9991
2 20740  82.5679  84.5040 0018561 284.9455 188.8655 12.66132098622202
Epoch: 2025-09-14T23:35Z
TLE epoch observation values (Epoch: 2025-09-14T23:35:37.824Z)
Latitude
65.23226°
Longitude
-99.93787°
Altitude
1,423.231 km
Speed
7.149 km/s
True Right ascension
16h 32m 39s
True Declination
65° 06' 45"
Sunlit
Object was in daylight at epoch
Visualization orbit readout
Latitude
Unknown
Longitude
Unknown
Altitude
Unknown
Speed
Unknown
Apparent Right ascension
Unknown
Apparent Declination
Unknown
Sunlit
N/A
Visualization observer readout
Local Sidereal Time
12:33:31
Azimuth
Unknown
Elevation
Unknown
Doppler factor
Unknown
Orbital elements
Apogee altitude
1,409.48 km
Perigee altitude
1,380.624 km
Semi-major axis
7,773.189 km
Eccentricity
0.00186
Inclination
82.5679°
RAAN
84.504°
Arg. of periapsis
284.9455°
True anomaly
188.8328°
Mean anomaly
188.8655°
Eccentric anomaly
188.84914°
Mean motion
3.16697 °/min
Orbital period
113.67 mins
BSTAR
0.00013127
Loading maneuver chart data...
Computing Atmospheric mass density...
Loading historical data...
Loading historical data...
Loading historical data...
Loading historical data...
Loading historical data...
Loading historical data...
Loading historical data...

Documentation

Showing up to 5 results
|